Flag for Mexico Weather past 2 weeks in Ojinaga, Chihuahua, Mexico

61 °F

Mostly cloudy.

Feels Like: 61 °F
Forecast: 52 / 70 °F
Wind: 6 mph from Northwest

Location: Marfa Municipal Airport

Current Time: Nov 26, 2015 at 5:00:21 PM

Latest Report: Nov 26, 2015 at 4:35 PM

Visibility: 10 mi

Pressure: 30.10 "Hg (27.42 "Hg at 788m altitude)

Humidity: 83%

Dew point: 55 °F

Location of OjinagaLocation

Historic Weather in Ojinaga — Graph


Ojinaga temperature yesterday

Maximum temperature yesterday: 77 °F (at 1:15 PM)
Minimum temperature yesterday: 30 °F (at 1:15 AM)
Average temperature yesterday: 54 °F

Past Weeks' High & Low Weather Summary

High77 °F (Nov 25, 1:15 PM)100% (Nov 15, 4:35 AM)30.38 "Hg (Nov 15, 4:35 AM)
Low19 °F (Nov 22, 3:15 AM)12% (Nov 11, 4:15 PM)29.62 "Hg (Nov 16, 4:35 PM)
Average47 °F58%30.12 "Hg
* Reported Nov 11 3:35 PM — Nov 26 3:55 PM, Ojinaga, Weather by CustomWeather, © 2015

Note: Actual official high and low records may vary slightly from our data, if they occured in-between our weather recording intervals... More about our weather records


Ojinaga weather history for previous 24 hours

Time TempWeatherWind HumidityBarometerVisibility
3:55 PM
Thu, Nov 26
63 °FOvercast.5 mph77%30.08 "Hg10 mi
3:15 PM63 °FOvercast.7 mph77%30.08 "Hg10 mi
2:55 PM63 °FPartly sunny.7 mph77%30.08 "Hg10 mi
2:35 PM63 °FPartly sunny.10 mph77%30.08 "Hg10 mi
2:15 PM63 °FOvercast.12 mph77%30.08 "Hg10 mi
1:55 PM61 °FMore clouds than sun.10 mph83%30.08 "Hg10 mi
1:35 PM61 °FMostly cloudy.13 mph83%30.08 "Hg10 mi
1:15 PM63 °FMostly cloudy.13 mph83%30.08 "Hg10 mi
12:55 PM61 °FMostly cloudy.10 mph88%30.09 "Hg10 mi
12:35 PM57 °FMore clouds than sun.No wind100%30.11 "Hg8 mi
12:15 PM57 °FMore clouds than sun.5 mph94%30.13 "Hg10 mi
11:55 AM57 °FOvercast.7 mph94%30.14 "Hg10 mi
11:35 AM57 °FMore clouds than sun.9 mph94%30.14 "Hg10 mi
11:15 AM57 °FOvercast.14 mph94%30.15 "Hg10 mi
10:55 AM59 °FMore clouds than sun.10 mph88%30.14 "Hg10 mi
10:35 AM59 °FOvercast.7 mph88%30.14 "Hg10 mi
10:15 AM57 °FMore clouds than sun.7 mph94%30.14 "Hg10 mi
9:55 AM57 °FMostly cloudy.8 mph94%30.14 "Hg10 mi
9:35 AM57 °FLow clouds.7 mph94%30.14 "Hg10 mi
9:15 AM57 °FMostly cloudy.6 mph94%30.13 "Hg10 mi
8:55 AM57 °FMore clouds than sun.6 mph94%30.13 "Hg10 mi
8:35 AM55 °FMostly cloudy.3 mph94%30.13 "Hg10 mi
8:15 AM55 °FOvercast.No wind94%30.13 "Hg10 mi
7:55 AM54 °FOvercast.13 mph94%30.12 "Hg10 mi
7:35 AM54 °FOvercast.No wind94%30.13 "Hg10 mi
7:15 AM54 °FScattered clouds.No wind94%30.12 "Hg10 mi
6:55 AM54 °FSunny.3 mph94%30.11 "Hg10 mi
6:35 AM54 °FPassing clouds.No wind94%30.10 "Hg10 mi
6:15 AM54 °FPassing clouds.9 mph94%30.10 "Hg10 mi
5:55 AM54 °FPartly cloudy.12 mph94%30.09 "Hg10 mi
5:35 AM54 °FOvercast.12 mph94%30.09 "Hg10 mi
5:15 AM54 °FMostly cloudy.8 mph94%30.10 "Hg10 mi
4:55 AM54 °FMostly cloudy.8 mph94%30.08 "Hg10 mi
4:35 AM52 °FOvercast.7 mph100%30.08 "Hg10 mi
3:55 AM52 °FOvercast.7 mph94%30.11 "Hg7 mi
3:35 AM52 °FMostly cloudy.7 mph94%30.12 "Hg5 mi
3:15 AM52 °FOvercast.3 mph94%30.12 "Hg8 mi
2:55 AM54 °FOvercast.No wind82%30.11 "Hg9 mi
2:35 AM54 °FOvercast.5 mph82%30.12 "Hg10 mi
2:15 AM54 °FOvercast.7 mph82%30.11 "Hg10 mi
1:55 AM52 °FOvercast.5 mph82%30.09 "Hg10 mi
1:35 AM52 °FOvercast.No wind82%30.09 "Hg10 mi
1:15 AM54 °FPassing clouds.6 mph72%30.09 "Hg10 mi
12:55 AM48 °FOvercast.12 mph76%30.09 "Hg10 mi
12:35 AM48 °FOvercast.5 mph76%30.09 "Hg10 mi
12:15 AM48 °FOvercast.5 mph71%30.08 "Hg10 mi
11:35 PM
Wed, Nov 25
46 °FPassing clouds.5 mph76%30.07 "Hg10 mi
11:15 PM46 °FPassing clouds.7 mph71%30.07 "Hg10 mi
10:55 PM45 °FPassing clouds.7 mph81%30.07 "Hg10 mi
10:35 PM45 °FPassing clouds.5 mph76%30.07 "Hg10 mi
9:55 PM46 °FClear.8 mph71%30.07 "Hg10 mi
9:35 PM46 °FClear.6 mph71%30.07 "Hg10 mi
8:55 PM48 °FPassing clouds.No wind66%30.06 "Hg10 mi
7:55 PM52 °FPassing clouds.No wind62%30.06 "Hg10 mi
7:35 PM57 °FClear.3 mph55%30.06 "Hg10 mi
7:15 PM59 °FClear.3 mph51%30.05 "Hg10 mi
6:55 PM59 °FClear.6 mph48%30.05 "Hg10 mi
6:35 PM59 °FClear.7 mph48%30.04 "Hg10 mi
6:15 PM61 °FClear.3 mph45%30.04 "Hg10 mi
5:35 PM61 °FClear.6 mph45%30.03 "Hg10 mi
5:15 PM64 °FClear.7 mph40%30.02 "Hg10 mi
Weather by CustomWeather, © 2015

See weather overviewHow to use our weather pages